Precipitable_Water
0.47 0.48 0.48 0.50 0.51 0.48 0.45 0.43 0.36 0.27 0.32 0.47 0.50 0.59 0.58 0.58 0.59 0.58 0.55 0.55 0.54 0.56 0.58 0.57 0.54 0.52 0.52 0.52 0.51 0.49 0.49 0.48 0.45 0.42 0.38 0.34 0.38 0.51
0.46 0.46 0.47 0.49 0.49 0.47 0.45 0.46 0.47 0.42 0.37 0.48 0.50 0.53 0.54 0.53 0.55 0.54 0.53 0.53 0.54 0.56 0.57 0.56 0.56 0.54 0.54 0.52 0.50 0.52 0.51 0.50 0.48 0.46 0.43 0.38 0.33 0.50
0.44 0.43 0.44 0.47 0.48 0.49 0.48 0.46 0.45 0.46 0.41 0.47 0.50 0.51 0.51 0.48 0.48 0.49 0.50 0.51 0.51 0.51 0.52 0.54 0.54 0.54 0.53 0.52 0.53 0.55 0.54 0.53 0.52 0.50 0.47 0.44 0.39 0.35
0.41 0.42 0.41 0.45 0.43 0.45 0.46 0.44 0.43 0.45 0.43 0.39 0.44 0.47 0.47 0.46 0.44 0.42 0.41 0.42 0.41 0.47 0.50 0.49 0.49 0.47 0.48 0.50 0.52 0.54 0.51 0.53 0.53 0.52 0.52 0.50 0.45 0.39
0.39 0.38 0.39 0.40 0.39 0.42 0.42 0.41 0.43 0.44 0.45 0.43 0.42 0.47 0.42 0.39 0.35 0.36 0.34 0.33 0.32 0.37 0.45 0.40 0.35 0.39 0.42 0.45 0.47 0.48 0.50 0.51 0.51 0.51 0.52 0.52 0.51 0.48
0.39 0.39 0.39 0.38 0.37 0.37 0.37 0.39 0.40 0.40 0.42 0.41 0.36 0.35 0.37 0.40 0.37 0.32 0.28 0.29 0.27 0.35 0.38 0.33 0.33 0.33 0.34 0.38 0.41 0.42 0.43 0.46 0.46 0.46 0.49 0.50 0.53 0.51
0.39 0.39 0.38 0.38 0.39 0.39 0.37 0.37 0.38 0.36 0.36 0.35 0.35 0.36 0.35 0.34 0.31 0.33 0.29 0.29 0.27 0.35 0.29 0.28 0.27 0.28 0.31 0.32 0.38 0.41 0.43 0.45 0.40 0.41 0.42 0.46 0.50 0.53
0.36 0.38 0.40 0.40 0.41 0.40 0.38 0.36 0.34 0.31 0.32 0.33 0.33 0.32 0.32 0.32 0.32 0.31 0.29 0.26 0.22 0.30 0.27 0.23 0.24 0.22 0.24 0.26 0.27 0.27 0.36 0.41 0.41 0.42 0.42 0.42 0.44 0.49
0.38 0.38 0.37 0.38 0.37 0.34 0.33 0.36 0.38 0.41 0.39 0.36 0.30 0.31 0.30 0.32 0.31 0.29 0.28 0.26 0.23 0.24 0.27 0.18 0.23 0.21 0.22 0.20 0.23 0.29 0.35 0.38 0.38 0.40 0.43 0.44 0.44 0.45
0.40 0.38 0.37 0.34 0.31 0.32 0.34 0.35 0.35 0.35 0.37 0.35 0.34 0.33 0.33 0.34 0.33 0.31 0.29 0.27 0.26 0.23 0.26 0.20 0.22 0.20 0.20 0.20 0.24 0.28 0.31 0.33 0.35 0.37 0.38 0.42 0.45 0.46
0.39 0.39 0.38 0.35 0.37 0.36 0.34 0.32 0.33 0.34 0.36 0.33 0.31 0.31 0.32 0.33 0.31 0.29 0.24 0.23 0.21 0.20 0.24 0.24 0.22 0.20 0.21 0.18 0.22 0.28 0.27 0.26 0.22 0.24 0.29 0.36 0.39 0.45
0.39 0.39 0.39 0.37 0.38 0.37 0.35 0.33 0.29 0.29 0.29 0.28 0.27 0.27 0.28 0.27 0.28 0.28 0.26 0.22 0.22 0.20 0.21 0.21 0.19 0.21 0.19 0.21 0.21 0.21 0.21 0.22 0.23 0.22 0.22 0.28 0.34 0.38
0.39 0.39 0.38 0.38 0.38 0.38 0.36 0.32 0.29 0.31 0.31 0.29 0.26 0.26 0.25 0.25 0.25 0.26 0.27 0.25 0.23 0.22 0.25 0.26 0.23 0.22 0.20 0.20 0.22 0.19 0.21 0.23 0.22 0.21 0.21 0.23 0.29 0.36
0.39 0.39 0.40 0.43 0.40 0.35 0.33 0.32 0.32 0.32 0.30 0.27 0.24 0.23 0.22 0.22 0.22 0.24 0.25 0.26 0.28 0.25 0.27 0.27 0.23 0.22 0.22 0.20 0.19 0.22 0.19 0.20 0.22 0.22 0.23 0.23 0.24 0.30
0.41 0.44 0.44 0.43 0.37 0.35 0.33 0.32 0.32 0.30 0.27 0.24 0.22 0.22 0.23 0.24 0.24 0.24 0.24 0.23 0.22 0.23 0.24 0.25 0.24 0.23 0.23 0.21 0.20 0.21 0.22 0.20 0.20 0.22 0.23 0.24 0.22 0.22
0.47 0.46 0.45 0.39 0.37 0.34 0.31 0.30 0.30 0.29 0.26 0.24 0.23 0.24 0.25 0.23 0.21 0.22 0.20 0.20 0.20 0.18 0.21 0.23 0.23 0.22 0.20 0.21 0.22 0.20 0.23 0.21 0.22 0.20 0.23 0.25 0.25 0.27
0.47 0.46 0.38 0.35 0.32 0.29 0.28 0.28 0.29 0.28 0.26 0.25 0.24 0.23 0.23 0.22 0.21 0.22 0.21 0.20 0.18 0.17 0.17 0.19 0.22 0.23 0.23 0.22 0.19 0.21 0.21 0.22 0.23 0.23 0.24 0.23 0.25 0.27
0.46 0.37 0.32 0.32 0.29 0.27 0.26 0.27 0.27 0.26 0.26 0.26 0.24 0.24 0.23 0.22 0.21 0.22 0.21 0.20 0.18 0.18 0.18 0.19 0.20 0.19 0.19 0.19 0.24 0.21 0.23 0.23 0.24 0.25 0.25 0.23 0.20 0.26
0.39 0.35 0.34 0.32 0.28 0.26 0.27 0.27 0.25 0.27 0.27 0.27 0.25 0.23 0.22 0.22 0.21 0.20 0.20 0.20 0.19 0.19 0.19 0.20 0.20 0.20 0.17 0.15 0.20 0.26 0.23 0.23 0.23 0.22 0.24 0.22 0.22 0.22
0.39 0.37 0.34 0.29 0.27 0.28 0.27 0.26 0.27 0.26 0.28 0.25 0.22 0.22 0.23 0.22 0.21 0.20 0.20 0.20 0.20 0.19 0.19 0.20 0.21 0.21 0.21 0.19 0.20 0.20 0.26 0.24 0.23 0.22 0.22 0.24 0.27 0.30
0.37 0.33 0.30 0.30 0.30 0.27 0.26 0.27 0.27 0.27 0.24 0.22 0.22 0.22 0.23 0.23 0.22 0.22 0.21 0.23 0.21 0.20 0.18 0.18 0.21 0.26 0.28 0.26 0.21 0.18 0.20 0.26 0.27 0.26 0.25 0.24 0.23 0.24
0.32 0.31 0.30 0.29 0.28 0.28 0.27 0.28 0.26 0.24 0.23 0.22 0.22 0.23 0.25 0.25 0.23 0.23 0.23 0.21 0.20 0.21 0.21 0.22 0.24 0.24 0.23 0.22 0.20 0.21 0.21 0.24 0.27 0.29 0.31 0.30 0.27 0.21
0.31 0.31 0.30 0.28 0.27 0.28 0.27 0.25 0.23 0.22 0.22 0.22 0.23 0.24 0.24 0.23 0.24 0.23 0.22 0.23 0.22 0.21 0.21 0.20 0.23 0.23 0.23 0.24 0.24 0.23 0.23 0.24 0.25 0.24 0.25 0.30 0.29 0.33
Wind_Speed
20 20 20 20 20 20 19 17 16 16 17 17 19 20 21 21 21 21 21 21 21 21 21 21 21 22 22 22 21 21 21 20 19 18 18 17 16 15
21 21 21 21 21 21 20 18 18 17 18 19 21 21 21 21 21 21 21 21 21 21 22 22 22 22 22 22 22 22 22 22 22 22 21 20 19 18
21 21 22 22 22 22 21 20 19 19 20 21 21 22 21 21 22 22 22 23 23 24 23 23 23 23 24 24 24 24 24 24 24 24 24 24 23 22
22 22 22 23 23 23 22 21 21 21 21 21 22 22 22 23 23 23 23 24 25 25 24 24 24 25 25 25 25 25 25 25 25 26 26 26 26 26
23 23 24 24 24 24 22 22 22 22 22 22 23 24 24 24 24 25 25 26 26 26 25 26 27 27 26 26 25 26 26 26 27 28 28 28 28 28
24 25 25 25 25 24 23 23 23 23 23 24 24 25 25 25 26 27 27 28 28 27 27 29 28 28 28 27 27 26 27 27 28 29 30 29 30 29
26 26 26 25 24 24 24 24 24 24 25 25 26 26 27 27 28 29 29 30 30 29 30 31 31 32 31 30 29 30 30 29 28 28 29 30 30 31
27 27 26 26 25 25 25 25 25 26 26 26 27 28 28 29 30 30 31 31 30 32 33 33 33 32 32 33 33 34 33 31 31 30 30 31 31 31
28 28 27 27 27 26 26 26 27 27 27 27 28 29 29 30 31 31 32 32 33 35 35 34 33 34 34 35 34 33 33 32 33 33 33 33 32 32
29 29 28 28 28 27 27 27 27 27 28 28 29 30 31 31 31 33 33 34 35 36 37 36 36 36 37 36 34 34 34 35 35 36 36 35 35 34
30 29 29 29 28 28 28 28 28 28 28 29 30 30 31 32 33 34 35 35 36 37 37 38 38 40 38 36 36 36 38 39 40 39 38 37 37 36
30 30 30 30 29 28 29 29 29 29 29 29 30 31 32 33 34 35 36 37 38 38 37 41 40 40 41 39 39 40 41 41 40 41 41 40 39 38
31 31 31 30 30 30 29 29 29 29 30 31 32 32 33 34 35 36 38 38 40 41 43 43 44 44 43 46 44 43 43 43 44 43 43 42 41 40
31 31 31 31 31 30 30 30 31 31 31 32 33 34 35 36 37 38 40 41 42 44 46 46 46 47 48 48 48 47 46 46 46 45 43 44 44 43
31 32 32 32 31 31 32 32 32 32 33 34 35 36 37 38 39 40 41 43 44 46 46 47 47 48 49 50 51 51 51 49 49 47 47 46 46 46
32 32 32 32 32 33 33 33 33 34 34 36 37 38 39 40 41 42 44 45 46 46 46 47 48 49 51 52 53 54 53 52 51 50 50 48 47 46
33 34 34 34 34 33 34 34 35 35 36 38 38 39 40 42 43 44 45 46 47 48 48 48 49 50 51 53 54 54 53 51 49 50 48 48 47 46
35 35 34 34 35 35 35 36 37 37 38 38 40 41 42 43 44 45 46 48 48 49 49 50 50 50 49 48 46 45 43 42 41 41 42 44 46 44
36 35 35 35 36 36 37 37 37 38 39 39 41 41 42 43 45 46 47 47 48 49 49 49 48 45 44 41 38 36 36 36 37 37 36 37 39 42
38 37 37 36 36 37 37 37 38 38 39 39 40 41 42 43 45 46 46 47 48 49 48 46 42 39 37 37 35 33 33 34 34 34 33 33 34 36
38 38 37 37 36 36 36 37 38 38 38 39 39 40 42 44 45 46 47 48 49 47 44 40 37 37 35 36 33 33 31 31 31 31 30 30 30 30
38 37 37 37 36 36 36 37 37 37 38 38 40 41 43 44 45 45 47 48 46 43 40 38 36 34 32 32 32 32 31 29 30 30 30 30 29 28
36 36 36 35 35 35 35 36 36 37 38 38 40 41 42 43 44 46 47 45 42 41 38 35 32 30 30 29 29 28 29 29 28 27 26 27 28 28
Wind_Direction
290 292 295 297 299 301 300 297 292 292 291 293 302 305 309 308 309 311 311 311 311 310 309 307 307 306 303 300 297 296 295 294 293 294 294 295 293 292
287 290 292 294 296 297 296 291 289 287 288 294 300 302 305 306 308 309 310 310 310 310 309 307 307 306 304 301 298 294 292 290 289 288 288 288 287 285
286 288 289 291 294 293 292 287 287 286 286 292 297 300 301 303 305 306 307 308 307 307 306 306 305 305 304 301 298 295 292 289 287 286 284 283 282 280
284 286 287 290 292 291 288 286 286 286 286 290 294 297 298 300 301 303 305 306 306 306 305 304 304 304 303 301 298 295 293 290 288 286 283 281 279 277
282 284 286 288 289 289 285 284 285 285 287 289 292 294 295 297 299 300 302 303 304 302 302 302 303 301 301 300 298 296 294 291 289 287 283 280 278 276
282 284 286 287 286 285 283 283 284 284 285 288 290 292 293 295 297 299 300 301 301 300 300 302 302 301 299 297 295 295 294 292 290 288 284 281 278 276
281 283 285 285 283 282 282 282 283 284 285 287 289 291 292 294 296 297 297 299 299 297 300 299 299 299 297 296 292 293 292 289 290 290 287 282 278 275
279 281 282 281 281 281 281 281 282 283 285 286 288 290 292 293 295 296 297 298 297 296 299 298 298 297 296 293 292 290 288 286 287 288 287 284 279 274
278 279 279 279 279 279 280 281 283 283 284 286 288 289 291 293 294 295 296 297 296 298 297 296 295 295 296 295 293 290 286 284 285 286 285 282 280 275
276 277 276 277 277 279 280 280 282 283 284 287 288 290 291 292 294 295 295 296 297 298 296 293 295 294 295 294 291 289 287 286 285 284 284 282 279 276
274 275 275 276 276 277 278 279 281 282 284 287 289 290 292 293 294 295 296 296 296 298 296 294 294 294 293 292 289 288 287 286 285 283 281 279 278 275
273 274 274 274 275 276 278 279 280 281 284 287 289 290 292 294 295 295 296 296 296 296 297 296 295 295 290 288 289 289 287 286 284 282 280 278 276 273
272 272 273 272 274 276 276 277 279 281 284 286 288 290 292 294 295 296 296 296 295 294 296 295 292 292 289 288 287 289 286 285 283 281 279 276 273 271
270 271 272 272 273 274 275 277 279 281 283 286 288 290 292 294 296 296 297 296 295 295 295 294 291 290 289 288 287 287 288 286 283 281 278 277 273 269
270 272 272 272 271 273 275 276 278 280 283 285 288 290 292 294 295 296 297 297 296 296 296 294 293 292 290 288 288 287 287 286 284 280 277 275 273 269
271 272 273 271 271 273 274 276 278 280 283 286 288 290 292 293 295 296 297 298 298 299 299 297 295 294 292 290 288 287 286 283 283 280 276 273 271 267
271 274 272 271 272 272 274 276 278 281 283 286 289 290 291 293 295 297 299 299 299 299 300 300 298 296 294 292 290 287 285 281 279 277 274 271 268 266
273 272 270 270 270 272 273 276 278 281 284 286 288 289 291 293 295 298 299 300 300 300 301 301 300 298 296 295 291 289 285 282 280 278 274 270 268 264
273 271 270 270 270 272 274 276 278 281 284 286 288 290 292 295 297 299 300 301 301 301 301 301 300 299 297 296 294 291 287 284 282 279 276 274 270 265
271 271 270 270 271 273 274 276 279 282 284 287 290 292 294 296 298 300 301 301 302 302 301 301 299 297 295 296 296 294 290 287 283 280 278 276 273 271
269 270 269 270 271 273 274 277 280 282 285 288 291 293 295 297 299 300 301 301 302 302 301 299 299 297 295 296 294 294 293 289 284 279 278 277 275 273
268 269 269 270 271 272 275 278 281 283 286 290 292 295 297 299 299 301 302 302 301 299 297 297 297 296 295 294 295 295 294 290 288 281 276 273 274 273
266 267 268 269 271 273 276 279 282 285 287 290 293 296 298 299 301 302 302 302 300 298 296 296 295 295 294 295 296 297 295 294 290 284 279 274 275 274